STARLINK-32347, 61010

Orbit data source: Space-Track

STARLINK-32347, 61010 is a payload satellite owned by SpaceX/Seattle (US) in LEO that was launched on Thu, 05 Sep 2024 UTC via an FALCON 9 launch vehicle from the Air Force Eastern Test Range (AFETR). Payload-class satellites include a variety of spacecraft equipped with specific instruments for various scientific and technological missions. These include communications satellites like Starlink; space stations such as the ISS; scientific satellites like the Hubble; Earth observation satellites from companies like Planet Labs, Umbra, and HawkEye 360; GPS; miniature CubeSats for education and research; and military/defense satellites.

Loading next visibility...
Identifier
61010, 2024-158W
Orbit
LEO
Country
Flag of USUS
Related business
Manufacturer
SpaceX/Seattle
Mission
Operational Commercial Communications
Bus & Motor
STARLINK V2M, Unknown motor
Mass
730 kg wet, ~700 kg dry
Launch date (UTC)
2024-09-05 (1 year ago)
Launch vehicle
FALCON 9
Launch site
Air Force Eastern Test Range (AFETR)
Object type
Payload
Rocket body
Debris
Shape & HBR
Box + 2 Pan, 17.7 m
Radar Cross Section
33.884 m², Large (>1 m²)

Expand to show TLE details & history
Last TLE update: 17 hours ago

TLE from 17 hours ago
0 STARLINK-32347
1 61010U 24158W   25346.63460740 -.00000360  00000-0 -11921-7 0  9990
2 61010  53.1601 109.8281 0002195  99.9543 260.1705 15.30186614 72253
Epoch: 2025-12-12T15:13Z
TLE epoch observation values (Epoch: 2025-12-12T15:13:50.079Z)
Latitude
-0.00006°
Longitude
159.79598°
Altitude
476.412 km
Speed
7.629 km/s
True Right ascension
07h 19m 18s
True Declination
0° 00' 00"
Sunlit
Object was in full shadow at epoch
Visualization orbit readout
Latitude
Unknown
Longitude
Unknown
Altitude
Unknown
Speed
Unknown
Apparent Right ascension
Unknown
Apparent Declination
Unknown
Sunlit
N/A
Visualization observer readout
Local Sidereal Time
06:52:53
Azimuth
Unknown
Elevation
Unknown
Doppler factor
Unknown
Orbital elements
Apogee altitude
477.016 km
Perigee altitude
474.007 km
Semi-major axis
6,853.648 km
Eccentricity
0.00022
Inclination
53.1601°
RAAN
109.8281°
Arg. of periapsis
99.9543°
True anomaly
260.14572°
Mean anomaly
260.1705°
Eccentric anomaly
260.15811°
Mean motion
3.82526 °/min
Orbital period
94.11 mins
BSTAR
-1.1921e-8
Loading maneuver chart data...
Computing Atmospheric mass density...
Loading historical data...
Loading historical data...
Loading historical data...
Loading historical data...
Loading historical data...
Loading historical data...
Loading historical data...

Documentation

Showing up to 5 results
|